Location: Oberstdorf
(47.4188°N, 10.2969°E)
Time: 13:43:54
(UTC+02:00)

ISS - Visible Passes

Search period start: 20 May 2018 00:00
Search period end: 30 May 2018 00:00
Orbit: 402 x 407 km, 51.6° (Epoch: 20 May)

Date Brightness Start Highest point End Pass type
(mag) Time Alt. Az. Time Alt. Az. Time Alt. Az.
20 May -1.6 00:06:25 17° ENE 00:06:25 17° ENE 00:07:17 10° ENE visible
20 May -2.4 01:38:57 20° WNW 01:40:45 38° N 01:43:50 10° ENE visible
20 May -2.9 03:14:25 10° WNW 03:17:37 50° NNE 03:20:49 10° E visible
20 May -3.4 04:50:59 10° WNW 04:54:05 41° SSW 04:57:11 10° SE visible
20 May -1.7 21:35:32 10° SE 21:35:58 10° SE 21:36:23 10° SE visible
20 May -3.9 23:08:38 10° SW 23:11:51 58° SSE 23:15:05 10° ENE visible
21 May -2.7 00:45:17 10° W 00:48:26 43° N 00:51:36 10° ENE visible
21 May -2.5 02:22:12 10° WNW 02:25:19 41° N 02:28:27 10° E visible
21 May -4.0 03:58:42 10° WNW 04:01:58 69° SSW 04:05:12 10° SE visible
21 May -3.3 22:16:44 10° SSW 22:19:44 35° SE 22:22:46 10° ENE visible
21 May -3.1 23:52:56 10° W 23:56:09 55° NNW 23:59:23 10° ENE visible
22 May -2.3 01:29:55 10° WNW 01:33:00 37° N 01:36:06 10° ENE visible
22 May -3.8 03:06:29 10° WNW 03:09:47 78° NNE 03:13:02 10° ESE visible
22 May -2.5 04:43:26 10° W 04:45:58 21° SW 04:48:29 10° S visible
22 May -3.7 23:00:37 10° WSW 23:03:53 77° NNW 23:07:10 10° ENE visible
23 May -2.3 00:37:34 10° WNW 00:40:40 37° N 00:43:45 10° ENE visible
23 May -3.2 02:14:17 10° WNW 02:17:31 55° NNE 02:20:44 10° E visible
23 May -3.3 03:50:54 10° WNW 03:53:55 34° SW 03:56:54 10° SSE visible
23 May -3.9 22:08:25 10° SW 22:11:40 70° SSE 22:14:56 10° ENE visible
23 May -2.5 23:45:11 10° W 23:48:19 41° N 23:51:27 10° ENE visible
24 May -2.7 01:22:03 10° WNW 01:25:12 44° N 01:27:48 14° E visible
24 May -2.4 02:58:33 10° WNW 03:00:12 26° W 03:00:12 26° W visible
24 May -2.9 22:52:47 10° W 22:55:58 50° NNW 22:59:11 10° ENE visible
25 May -2.4 00:29:44 10° WNW 00:32:51 38° N 00:35:35 12° ENE visible
25 May -2.5 02:06:17 10° WNW 02:08:10 31° WNW 02:08:10 31° WNW visible
25 May -3.4 22:00:24 10° WSW 22:03:40 68° NNW 22:06:56 10° ENE visible
25 May -2.3 23:37:22 10° WNW 23:40:28 37° N 23:43:33 10° ENE visible
26 May -3.3 01:14:02 10° WNW 01:17:03 59° N 01:17:03 59° N visible
26 May -2.4 22:44:58 10° WNW 22:48:05 39° N 22:51:11 10° ENE visible
27 May -2.9 00:21:46 10° WNW 00:24:57 47° NNE 00:26:11 30° ENE visible
27 May -1.3 01:58:18 10° WNW 01:58:47 13° WNW 01:58:47 13° WNW visible
27 May -2.7 21:52:31 10° W 21:55:41 46° NNW 21:58:52 10° ENE visible
27 May -2.5 23:29:27 10° WNW 23:32:34 40° N 23:35:24 12° ENE visible
28 May -2.6 01:05:58 10° WNW 01:08:01 35° WNW 01:08:01 35° WNW visible
28 May -2.3 22:37:04 10° WNW 22:40:09 37° N 22:43:14 10° ENE visible
29 May -3.7 00:13:40 10° WNW 00:16:57 70° NNE 00:17:18 62° ENE visible
29 May -2.4 21:44:37 10° WNW 21:47:44 38° N 21:50:49 10° ENE visible
29 May -3.1 23:21:22 10° WNW 23:24:35 51° NNE 23:26:37 20° E visible
